カタログに戻る

STARLINK-5834

運用中通信VLEO
NORAD 57071·PAYLOAD·🇺🇸 United States

打ち上げ Jun 22, 2023 から Vandenberg Space Force Base

Loading…

次のパス (今後24時間)

TLE

最新Source: CelesTrak SupGP

元期: Sep 14, 2026, 21:15 UTC

1 57071C 23088Z   26257.88590278  .00000541  00000+0  19584-4 0  2577
2 57071  43.0009 107.9310 0001159 267.9332  40.7415 15.27570592    12

AllMySatでSTARLINK-5834をリアルタイム追跡

Download on the App Store